Location: Unspecified
(35.6961°N, 0.0000°E)
Time: 01:24:18
(UTC+00:00)

Altair - Pass Details

Date: 24 May 2019
Orbit: 1501 x 1683 km, 47.2° (Epoch: 16 June)

Event Time Altitude Azimuth Distance (km) Brightness Sun altitude
Rises 07:00:13 0° 289° (WNW) 4,936 9.7 24.5°
Reaches altitude 10° 07:03:40 10° 296° (WNW) 3,947 9.3 25.1°
Maximum altitude 07:13:14 44° 6° (N) 2,190 8.8 27.1°
Drops below altitude 10° 07:22:37 10° 76° (ENE) 3,867 11.3 29.0°
Sets 07:25:57 0° 83° (E) 4,829 11.3 29.6°
